• In Deutschland
  • Länderverzeichnis
  • Für 7 Tage
  • Wassertemperatur
  • Satellitenkarten
  • Wetterkarte
  • Widgets
  • user-avatar
    Anmelden

    Stündliche Wetter Siegen

    Heute, 20 Oktober, Freitag

    Zeit Temperatur Niederschläge Wind Luftdruck Luftfeuchtigkeit
    00:00 +14°C° 0 mm 2 m/S 734 mmHg 75%
    01:00 +14°C° 0 mm 2 m/S 734 mmHg 74%
    02:00 +14°C° 0 mm 2 m/S 734 mmHg 73%
    03:00 +14°C° 0 mm 2 m/S 733 mmHg 72%
    04:00 +14°C° 0 mm 2 m/S 733 mmHg 71%
    05:00 +14°C° 0,3 mm 2 m/S 733 mmHg 73%
    06:00 +13°C° 0,3 mm 2 m/S 733 mmHg 76%
    07:00 +12°C° 0,3 mm 3 m/S 733 mmHg 79%
    08:00 +12°C° 1,2 mm 3 m/S 733 mmHg 83%
    09:00 +12°C° 1,2 mm 3 m/S 734 mmHg 86%
    10:00 +13°C° 1,2 mm 3 m/S 734 mmHg 90%
    11:00 +13°C° 0,2 mm 4 m/S 734 mmHg 87%
    12:00 +14°C° 0,2 mm 4 m/S 734 mmHg 84%
    13:00 +14°C° 0,2 mm 5 m/S 735 mmHg 81%
    14:00 +14°C° 0,1 mm 4 m/S 735 mmHg 78%
    15:00 +14°C° 0,1 mm 4 m/S 735 mmHg 74%
    16:00 +14°C° 0,1 mm 4 m/S 735 mmHg 71%
    17:00 +13°C° 0 mm 3 m/S 735 mmHg 74%
    18:00 +11°C° 0 mm 3 m/S 735 mmHg 77%
    19:00 +10°C° 0 mm 3 m/S 736 mmHg 80%
    20:00 +10°C° 0 mm 3 m/S 736 mmHg 82%
    21:00 +9°C° 0 mm 2 m/S 736 mmHg 85%
    22:00 +8°C° 0 mm 2 m/S 736 mmHg 87%
    23:00 +8°C° 0 mm 2 m/S 736 mmHg 88%

    Morgen, 21 Oktober, Samstag

    Zeit Temperatur Niederschläge Wind Luftdruck Luftfeuchtigkeit
    00:00 +8°C° 0 mm 2 m/S 736 mmHg 90%
    01:00 +7°C° 0 mm 2 m/S 736 mmHg 91%
    02:00 +8°C° 0 mm 2 m/S 736 mmHg 89%
    03:00 +8°C° 0 mm 2 m/S 736 mmHg 87%
    04:00 +9°C° 0 mm 2 m/S 735 mmHg 86%
    05:00 +9°C° 0 mm 2 m/S 735 mmHg 88%
    06:00 +9°C° 0 mm 2 m/S 735 mmHg 89%
    07:00 +10°C° 0 mm 2 m/S 735 mmHg 91%
    08:00 +11°C° 0 mm 3 m/S 735 mmHg 88%
    09:00 +13°C° 0 mm 3 m/S 735 mmHg 85%
    10:00 +14°C° 0 mm 4 m/S 735 mmHg 83%
    11:00 +14°C° 0,2 mm 4 m/S 734 mmHg 83%
    12:00 +15°C° 0,2 mm 4 m/S 734 mmHg 84%
    13:00 +15°C° 0,2 mm 4 m/S 734 mmHg 84%
    14:00 +15°C° 0,2 mm 4 m/S 734 mmHg 85%
    15:00 +14°C° 0,2 mm 4 m/S 734 mmHg 86%
    16:00 +14°C° 0,2 mm 4 m/S 734 mmHg 87%
    17:00 +13°C° 0,1 mm 4 m/S 734 mmHg 87%
    18:00 +12°C° 0,1 mm 3 m/S 734 mmHg 88%
    19:00 +11°C° 0,1 mm 3 m/S 735 mmHg 88%
    20:00 +11°C° 0 mm 3 m/S 735 mmHg 89%
    21:00 +10°C° 0 mm 3 m/S 735 mmHg 89%
    22:00 +10°C° 0 mm 3 m/S 735 mmHg 89%
    23:00 +9°C° 0 mm 3 m/S 735 mmHg 89%

    übermorgen, 22 Oktober, Sonntag

    Zeit Temperatur Niederschläge Wind Luftdruck Luftfeuchtigkeit
    00:00 +9°C° 0 mm 3 m/S 735 mmHg 88%
    01:00 +8°C° 0 mm 3 m/S 735 mmHg 88%
    02:00 +7°C° 0 mm 4 m/S 735 mmHg 88%
    03:00 +7°C° 0 mm 4 m/S 735 mmHg 88%
    04:00 +6°C° 0 mm 4 m/S 735 mmHg 89%
    05:00 +6°C° 0 mm 4 m/S 735 mmHg 88%
    06:00 +6°C° 0 mm 4 m/S 734 mmHg 87%
    07:00 +6°C° 0 mm 4 m/S 734 mmHg 86%
    08:00 +7°C° 0,1 mm 4 m/S 735 mmHg 84%
    09:00 +7°C° 0,1 mm 5 m/S 735 mmHg 82%
    10:00 +8°C° 0,1 mm 5 m/S 735 mmHg 80%
    11:00 +8°C° 0,3 mm 5 m/S 735 mmHg 80%
    12:00 +8°C° 0,3 mm 5 m/S 735 mmHg 81%
    13:00 +8°C° 0,3 mm 5 m/S 735 mmHg 81%
    14:00 +8°C° 0,2 mm 5 m/S 735 mmHg 81%
    15:00 +8°C° 0,2 mm 4 m/S 735 mmHg 82%
    16:00 +8°C° 0,2 mm 4 m/S 735 mmHg 83%
    17:00 +7°C° 0,1 mm 4 m/S 735 mmHg 85%
    18:00 +7°C° 0,1 mm 4 m/S 735 mmHg 87%
    19:00 +7°C° 0,1 mm 3 m/S 735 mmHg 89%
    20:00 +7°C° 0 mm 3 m/S 735 mmHg 89%
    21:00 +7°C° 0 mm 3 m/S 736 mmHg 90%
    22:00 +5°C° 0 mm 3 m/S 736 mmHg 91%
    23:00 +5°C° 0 mm 3 m/S 736 mmHg 92%

    23 Oktober, Montag

    Zeit Temperatur Niederschläge Wind Luftdruck Luftfeuchtigkeit
    00:00 +4°C° 0 mm 3 m/S 736 mmHg 93%
    01:00 +4°C° 0 mm 3 m/S 736 mmHg 94%
    02:00 +4°C° 0,2 mm 3 m/S 736 mmHg 94%
    03:00 +5°C° 0,2 mm 3 m/S 735 mmHg 94%
    04:00 +5°C° 0,2 mm 3 m/S 735 mmHg 95%
    05:00 +7°C° 0,3 mm 3 m/S 736 mmHg 94%
    06:00 +7°C° 0,3 mm 3 m/S 736 mmHg 94%
    07:00 +8°C° 0,3 mm 3 m/S 736 mmHg 93%
    08:00 +7°C° 0,1 mm 4 m/S 736 mmHg 92%
    09:00 +8°C° 0,1 mm 4 m/S 737 mmHg 90%
    10:00 +8°C° 0,1 mm 4 m/S 737 mmHg 88%
    11:00 +10°C° 0,1 mm 4 m/S 737 mmHg 86%
    12:00 +10°C° 0,1 mm 4 m/S 737 mmHg 84%
    13:00 +11°C° 0,1 mm 4 m/S 737 mmHg 82%
    14:00 +11°C° 0,1 mm 4 m/S 737 mmHg 82%
    15:00 +11°C° 0,1 mm 3 m/S 737 mmHg 82%
    16:00 +11°C° 0,1 mm 3 m/S 737 mmHg 82%
    17:00 +10°C° 0,3 mm 2 m/S 738 mmHg 86%
    18:00 +10°C° 0,3 mm 2 m/S 738 mmHg 90%
    19:00 +9°C° 0,3 mm 2 m/S 738 mmHg 94%
    20:00 +9°C° 0,2 mm 2 m/S 738 mmHg 95%
    21:00 +9°C° 0,2 mm 2 m/S 738 mmHg 95%
    22:00 +9°C° 0,2 mm 2 m/S 738 mmHg 96%
    23:00 +9°C° 0,1 mm 2 m/S 738 mmHg 96%

    24 Oktober, Dienstag

    Zeit Temperatur Niederschläge Wind Luftdruck Luftfeuchtigkeit
    00:00 +10°C° 0,1 mm 1 m/S 738 mmHg 96%
    01:00 +10°C° 0,1 mm 1 m/S 738 mmHg 96%
    02:00 +10°C° 0,1 mm 1 m/S 738 mmHg 96%
    03:00 +10°C° 0,1 mm 1 m/S 738 mmHg 96%
    04:00 +10°C° 0,1 mm 1 m/S 738 mmHg 96%
    05:00 +11°C° 0,2 mm 1 m/S 738 mmHg 97%
    06:00 +11°C° 0,2 mm 1 m/S 738 mmHg 97%
    07:00 +11°C° 0,2 mm 1 m/S 738 mmHg 97%
    08:00 +11°C° 0,4 mm 1 m/S 739 mmHg 96%
    09:00 +12°C° 0,4 mm 1 m/S 739 mmHg 96%
    10:00 +12°C° 0,4 mm 1 m/S 739 mmHg 96%
    11:00 +13°C° 0,1 mm 1 m/S 739 mmHg 94%
    12:00 +13°C° 0,1 mm 1 m/S 739 mmHg 93%
    13:00 +14°C° 0,1 mm 1 m/S 739 mmHg 92%
    14:00 +15°C° 0,1 mm 1 m/S 740 mmHg 92%
    15:00 +15°C° 0,1 mm 1 m/S 740 mmHg 92%
    16:00 +15°C° 0,1 mm 1 m/S 740 mmHg 92%
    17:00 +15°C° 0,1 mm 1 m/S 740 mmHg 93%
    18:00 +14°C° 0,1 mm 1 m/S 740 mmHg 94%
    19:00 +13°C° 0,1 mm 1 m/S 741 mmHg 96%
    20:00 +13°C° 0 mm 1 m/S 741 mmHg 96%
    21:00 +13°C° 0 mm 1 m/S 741 mmHg 96%
    22:00 +13°C° 0 mm 1 m/S 741 mmHg 97%
    23:00 +13°C° 0,1 mm 1 m/S 741 mmHg 97%

    25 Oktober, Mittwoch

    Zeit Temperatur Niederschläge Wind Luftdruck Luftfeuchtigkeit
    00:00 +13°C° 0,1 mm 1 m/S 741 mmHg 97%
    01:00 +13°C° 0,1 mm 1 m/S 742 mmHg 97%
    02:00 +14°C° 0,1 mm 1 m/S 742 mmHg 97%
    03:00 +14°C° 0,1 mm 1 m/S 742 mmHg 97%
    04:00 +14°C° 0,1 mm 1 m/S 742 mmHg 98%
    05:00 +14°C° 0 mm 1 m/S 742 mmHg 98%
    06:00 +14°C° 0 mm 1 m/S 742 mmHg 98%
    07:00 +14°C° 0 mm 1 m/S 742 mmHg 98%
    08:00 +14°C° 0 mm 2 m/S 743 mmHg 95%
    09:00 +15°C° 0 mm 2 m/S 743 mmHg 93%
    10:00 +16°C° 0 mm 2 m/S 743 mmHg 91%
    11:00 +16°C° 0 mm 2 m/S 743 mmHg 88%
    12:00 +16°C° 0 mm 2 m/S 743 mmHg 85%
    13:00 +17°C° 0 mm 2 m/S 743 mmHg 83%
    14:00 +17°C° 0 mm 2 m/S 743 mmHg 83%
    15:00 +18°C° 0 mm 1 m/S 743 mmHg 82%
    16:00 +18°C° 0 mm 1 m/S 743 mmHg 82%
    17:00 +15°C° 0 mm 1 m/S 743 mmHg 86%
    18:00 +14°C° 0 mm 1 m/S 743 mmHg 89%
    19:00 +13°C° 0 mm 1 m/S 744 mmHg 93%
    20:00 +12°C° 0 mm 1 m/S 744 mmHg 93%
    21:00 +11°C° 0 mm 0 m/S 744 mmHg 94%
    22:00 +11°C° 0 mm 0 m/S 744 mmHg 94%
    23:00 +11°C° 0 mm 0 m/S 744 mmHg 94%
    Mehr zeigen